[[{"header":{"parameterUnit":"m.s-1","parameterCategory":1,"la1":30.2991,"la2":30.254,"lo1":-89.0895,"lo2":-89.0444,"dy":0.0017,"dx":0.0017,"nx":28,"ny":28,"refTime":"2024-04-17T21:00:00:Z","depth":0,"parameterNumber":2,"parameterNumberName":"U-component_of_WINDS"},"data":[0,0,0,0,0,0,0,0,0,0,0,0,0,0,0,0,0,0,0,0,0,0,0,0,0,0,0,0,0,0,0,0,0,0,0,0,0,0,0,0,0,0,0,0,0,0,0,0,0,0,0,0,0,0,0,0,0,0,-2.4216,-2.4216,0,-2.4225,-2.4226,-2.4226,-2.4193,-2.4192,-2.4191,-2.419,-2.4199,-2.42,-2.4201,0,0,0,0,0,0,0,0,0,0,0,0,0,-2.4171,-2.4172,-2.4216,-2.4216,-2.4217,-2.4225,-2.4226,-2.4226,-2.4193,-2.4192,-2.4191,-2.419,-2.4198,-2.42,-2.4201,0,0,0,0,0,0,0,0,0,0,0,0,0,-2.4187,-2.4173,-2.4216,-2.4201,-2.42,-2.4225,-2.4226,-2.4226,-2.4193,-2.4192,-2.419,-2.4189,-2.4198,-2.42,-2.4201,-2.4241,0,0,-2.4207,-2.4207,0,0,0,0,0,0,0,0,-2.4186,-2.4188,-2.4203,-2.4202,-2.4201,-2.4207,-2.4213,-2.4231,-2.4194,-2.4196,-2.419,-2.4188,-2.4203,-2.4204,-2.4209,-2.4242,-2.4242,-2.4207,-2.4208,-2.4208,-2.4209,0,0,0,0,0,0,0,-2.4185,-2.4188,-2.422,-2.4204,-2.4202,-2.4194,-2.4195,-2.4216,-2.4207,-2.4196,-2.4193,-2.4195,-2.4202,-2.4207,-2.4209,-2.4242,-2.4207,-2.4208,-2.4209,-2.421,-2.4309,-2.4311,0,0,0,0,0,0,-2.4186,-2.4187,-2.422,-2.422,-2.419,-2.4197,-2.4197,-2.4206,-2.4207,-2.4206,-2.4196,-2.4193,-2.4205,-2.4207,-2.4209,-2.4255,-2.4208,-2.421,-2.4211,-2.4308,-2.431,-2.4311,0,0,0,0,0,0,-2.4185,-2.4189,-2.4219,-2.4203,-2.4206,-2.4199,-2.4209,-2.4207,-2.4213,-2.4207,-2.4206,-2.4203,-2.4204,-2.4206,-2.4234,-2.4255,-2.4211,-2.4212,-2.4306,-2.4308,-2.431,-2.4349,0,0,0,0,0,0,-2.4184,-2.4189,-2.4204,-2.4204,-2.4207,-2.4244,-2.4211,-2.4208,-2.4216,-2.4212,-2.4214,-2.4212,-2.4203,-2.4231,-2.4235,-2.4257,-2.4214,-2.4304,-2.4307,-2.431,-2.4346,-2.4353,-2.4358,0,0,0,0,0,-2.4182,-2.4214,-2.4204,-2.4209,-2.4226,-2.4245,-2.4247,-2.4236,-2.4218,-2.4232,-2.4229,-2.4212,-2.4253,-2.4234,-2.4239,-2.4261,-2.4302,-2.4306,-2.4309,-2.4343,-2.4351,-2.4358,0,0,0,0,0,0,-2.4216,-2.4213,-2.4203,-2.4236,-2.4241,-2.4239,-2.4257,-2.4245,-2.4255,-2.4251,-2.4236,-2.4237,-2.4267,-2.4267,-2.4246,-2.43,-2.4274,-2.4279,-2.4299,-2.4306,-2.4312,-2.4311,-2.4215,0,0,0,0,0,-2.4227,-2.4243,-2.424,-2.4269,-2.4273,-2.4265,-2.4273,-2.4264,-2.4269,-2.427,-2.4269,-2.4274,-2.4288,-2.4298,-2.431,-2.4347,-2.4346,-2.4364,-2.4371,-2.4376,-2.4379,-2.4399,-2.4407,-2.4323,-2.4323,-2.4323,0,0,-2.425,-2.4251,-2.4262,-2.4276,-2.4279,-2.4296,-2.4267,-2.4286,-2.4298,-2.4273,-2.4299,-2.4298,-2.4303,-2.4336,-2.435,-2.4336,-2.4403,-2.438,-2.4385,-2.4385,-2.4404,-2.4412,-2.4419,-2.4326,-2.4325,-2.4325,0,0,-2.4301,-2.4303,-2.4327,-2.4332,-2.4337,-2.4332,-2.4338,-2.4339,-2.4338,-2.4364,-2.4346,-2.4361,-2.4385,-2.4389,-2.4395,-2.445,-2.4434,-2.4454,-2.4486,-2.4506,-2.4512,-2.4518,-2.4537,-2.4544,-2.4458,-2.4459,-2.4459,0,-2.4328,-2.4353,-2.4342,-2.4362,-2.4369,-2.4349,-2.4374,-2.4378,-2.4387,-2.4393,-2.4378,-2.4409,-2.4411,-2.4444,-2.4457,-2.4463,-2.4469,-2.4453,-2.4512,-2.4518,-2.4523,-2.4541,-2.4548,-2.4461,-2.4461,-2.446,-2.446,0,-2.4387,-2.4405,-2.4424,-2.4434,-2.4443,-2.4466,-2.4458,-2.4469,-2.446,-2.4457,-2.4484,-2.4486,-2.4499,-2.4507,-2.4498,-2.4539,-2.453,-2.4515,-2.4488,-2.4533,-2.455,-2.4557,-2.4464,-2.4463,-2.4463,-2.4462,0,0,-2.4456,-2.4461,-2.4468,-2.4473,-2.4478,-2.4492,-2.4514,-2.4527,-2.4537,-2.4545,-2.4563,-2.4585,-2.4571,-2.4577,-2.4569,-2.4586,-2.4629,-2.4568,-2.4568,-2.4578,-2.4674,-2.4685,-2.4694,-2.462,-2.4621,-2.4622,-2.4674,0,-2.4505,-2.4543,-2.4534,-2.4572,-2.4588,-2.457,-2.459,-2.4596,-2.4594,-2.4608,-2.4606,-2.4622,-2.4602,-2.4606,-2.4622,-2.462,-2.4648,-2.4617,-2.4636,-2.4637,-2.4634,-2.4702,-2.4714,-2.4762,-2.468,-2.4681,-2.4682,0,-2.4566,-2.4577,-2.4616,-2.462,-2.4627,-2.4645,-2.4656,-2.467,-2.4677,-2.4674,-2.4683,-2.4672,-2.4694,-2.4669,-2.47,-2.4679,-2.4687,-2.4688,-2.469,-2.4689,-2.4661,-2.4703,-2.4777,-2.4784,-2.4692,-2.4692,-2.4691,0,-2.4612,-2.4636,-2.4663,-2.4668,-2.4673,-2.4686,-2.4689,-2.4694,-2.4703,-2.4714,-2.472,-2.4733,-2.474,-2.4751,-2.4744,-2.4726,-2.4776,-2.475,-2.4774,-2.4775,-2.4784,-2.4783,-2.4859,-2.4792,-2.4792,-2.4791,-2.4791,0,-2.4666,-2.4691,-2.4684,-2.47,-2.4727,-2.4718,-2.4746,-2.4747,-2.4752,-2.4768,-2.4754,-2.477,-2.4761,-2.4776,-2.4771,-2.4797,-2.4801,-2.4799,-2.4797,-2.48,-2.48,-2.4803,-2.4799,-2.4793,-2.4793,-2.4793,-2.4792,0,-2.4721,-2.4717,-2.4745,-2.4749,-2.475,-2.477,-2.4773,-2.4789,-2.4787,-2.4808,-2.4813,-2.481,-2.4827,-2.4822,-2.4841,-2.4837,-2.487,-2.4865,-2.4868,-2.4866,-2.489,-2.4888,-2.497,-2.498,-2.4907,-2.4908,-2.4908,0,-2.4755,-2.4774,-2.478,-2.479,-2.4794,-2.4811,-2.482,-2.4813,-2.4823,-2.4833,-2.4848,-2.4864,-2.4876,-2.4905,-2.4904,-2.4919,-2.4913,-2.4941,-2.4915,-2.4917,-2.4912,-2.491,-2.4912,-2.4945,-2.4946,-2.4947,-2.4947,0,-2.4816,-2.4814,-2.4828,-2.4842,-2.4854,-2.4864,-2.4873,-2.4883,-2.4876,-2.4889,-2.4906,-2.4916,-2.4936,-2.4952,-2.4966,-2.4969,-2.4957,-2.4956,-2.4962,-2.4964,-2.4964,-2.4964,-2.4881,-2.4953,-2.4953,-2.4952,-2.4952,-2.4952,-2.4861,-2.4877,-2.4884,-2.49,-2.4907,-2.4916,-2.4931,-2.4932,-2.4947,-2.4962,-2.4958,-2.4978,-2.4986,-2.5003,-2.5008,-2.5024,-2.5013,-2.5022,-2.5024,-2.5026,-2.5029,-2.4964,-2.5026,-2.5026,-2.5026,-2.5026,-2.5026,0,-2.492,-2.4925,-2.494,-2.4954,-2.4967,-2.4956,-2.4967,-2.4978,-2.4996,-2.5005,-2.5018,-2.5039,-2.5055,-2.5057,-2.5072,-2.5085,-2.508,-2.5089,-2.5087,-2.5088,-2.5038,-2.5031,-2.5093,-2.5093,-2.5093,-2.5093,-2.5093,-2.5093,-2.4953,-2.4979,-2.4978,-2.5008,-2.5012,-2.5033,-2.5039,-2.5048,-2.5055,-2.5079,-2.5093,-2.5094,-2.51,-2.5116,-2.5131,-2.5131,-2.5137,-2.5148,-2.5146,-2.5098,-2.5092,-2.5085,-2.5078,-2.515,-2.515,-2.5195,-2.5195,-2.5195]},{"header":{"parameterUnit":"m.s-1","parameterCategory":1,"la1":30.2991,"la2":30.254,"lo1":-89.0895,"lo2":-89.0444,"dy":0.0017,"dx":0.0017,"nx":28,"ny":28,"refTime":"2024-04-17T21:00:00:Z","depth":0,"parameterNumber":3,"parameterNumberName":"V-component_of_WINDS"},"data":[0,0,0,0,0,0,0,0,0,0,0,0,0,0,0,0,0,0,0,0,0,0,0,0,0,0,0,0,0,0,0,0,0,0,0,0,0,0,0,0,0,0,0,0,0,0,0,0,0,0,0,0,0,0,0,0,0,0,3.5442,3.5442,0,3.5376,3.5375,3.5374,3.5365,3.5366,3.5367,3.5367,3.5291,3.5288,3.5285,0,0,0,0,0,0,0,0,0,0,0,0,0,3.5557,3.5555,3.5443,3.5442,3.5441,3.5376,3.5375,3.5374,3.5365,3.5366,3.5367,3.5367,3.5291,3.5288,3.5285,0,0,0,0,0,0,0,0,0,0,0,0,0,3.55,3.5554,3.5443,3.5429,3.5427,3.5376,3.5375,3.5374,3.5365,3.5366,3.5367,3.5368,3.5292,3.5289,3.5285,3.5241,0,0,3.5273,3.5271,0,0,0,0,0,0,0,0,3.5503,3.5496,3.5432,3.543,3.5427,3.538,3.5387,3.5329,3.5365,3.5388,3.5367,3.5368,3.5319,3.5313,3.5298,3.5237,3.5234,3.5272,3.527,3.5268,3.5267,0,0,0,0,0,0,0,3.5507,3.5499,3.5416,3.5431,3.5428,3.5424,3.5417,3.5376,3.5349,3.5386,3.5385,3.5378,3.5318,3.5302,3.5296,3.5233,3.5272,3.5269,3.5266,3.5265,3.5136,3.5135,0,0,0,0,0,0,3.5515,3.5502,3.5418,3.5414,3.5469,3.5421,3.5414,3.5394,3.5349,3.5343,3.5377,3.5378,3.5308,3.5301,3.5293,3.5241,3.5268,3.5264,3.5262,3.5137,3.5135,3.5134,0,0,0,0,0,0,3.5517,3.5507,3.5421,3.5458,3.5447,3.5418,3.5397,3.5392,3.5376,3.5343,3.5337,3.5366,3.5309,3.5299,3.5255,3.5238,3.5263,3.5259,3.5138,3.5136,3.5135,3.5135,0,0,0,0,0,0,3.5521,3.5508,3.5492,3.5458,3.5445,3.5385,3.5396,3.539,3.537,3.5371,3.5331,3.5325,3.5309,3.5261,3.5251,3.5233,3.5256,3.5139,3.5137,3.5135,3.5136,3.5133,3.5131,0,0,0,0,0,3.5525,3.5492,3.5491,3.5481,3.5424,3.5384,3.5376,3.5361,3.5369,3.5352,3.5331,3.5326,3.5242,3.5257,3.5245,3.5226,3.514,3.5138,3.5135,3.5137,3.5134,3.5131,0,0,0,0,0,0,3.5521,3.5487,3.5486,3.5442,3.5417,3.5383,3.5361,3.5357,3.5326,3.5327,3.5307,3.5298,3.5256,3.5236,3.5253,3.5183,3.5192,3.5187,3.5197,3.5193,3.5191,3.5196,3.5253,0,0,0,0,0,3.5516,3.5489,3.5459,3.5423,3.5411,3.5388,3.537,3.5361,3.5332,3.5321,3.5296,3.5267,3.5234,3.5213,3.518,3.5134,3.5125,3.5115,3.5112,3.511,3.5106,3.5083,3.5078,3.5126,3.5126,3.5126,0,0,3.5503,3.5482,3.5465,3.5422,3.5401,3.5372,3.5379,3.5346,3.5324,3.5315,3.5273,3.5255,3.5221,3.5176,3.5155,3.5159,3.5092,3.5107,3.5106,3.5103,3.508,3.5075,3.5071,3.5125,3.5125,3.5125,0,0,3.5466,3.5447,3.5416,3.5397,3.5367,3.5353,3.5345,3.5313,3.5302,3.5261,3.5254,3.5226,3.517,3.5147,3.5128,3.5087,3.5082,3.5077,3.5063,3.504,3.5037,3.5033,3.502,3.5015,3.5073,3.5073,3.5073,0,3.5453,3.5411,3.5399,3.5369,3.5351,3.5346,3.5314,3.5295,3.5254,3.5241,3.5247,3.5179,3.5155,3.5107,3.5098,3.5082,3.5073,3.5081,3.5039,3.5035,3.5031,3.5019,3.5013,3.5073,3.5073,3.5073,3.5073,0,3.5398,3.5369,3.5347,3.5314,3.5293,3.5262,3.5245,3.5225,3.5219,3.5204,3.5163,3.5136,3.51,3.5087,3.5079,3.5038,3.5042,3.5043,3.5052,3.5027,3.5014,3.5009,3.5072,3.5072,3.5073,3.5073,0,0,3.5353,3.5318,3.531,3.5296,3.5265,3.5241,3.521,3.5179,3.5163,3.5136,3.511,3.5065,3.5067,3.5046,3.5035,3.5015,3.4987,3.5019,3.5018,3.5015,3.4943,3.4942,3.4937,3.4984,3.4983,3.4982,3.4946,0,3.5313,3.5261,3.5252,3.5206,3.518,3.5176,3.515,3.5127,3.5114,3.5088,3.5072,3.5041,3.5046,3.5033,3.5014,3.4995,3.4972,3.4997,3.4958,3.4957,3.4967,3.493,3.4928,3.4895,3.4941,3.494,3.4939,0,3.5258,3.5235,3.5188,3.5164,3.5153,3.5129,3.5101,3.5077,3.5052,3.5044,3.5023,3.5015,3.4983,3.4995,3.495,3.4967,3.4951,3.494,3.4938,3.4933,3.4946,3.4924,3.4884,3.4879,3.4931,3.4932,3.4932,0,3.5232,3.5189,3.5156,3.5144,3.5115,3.5099,3.5085,3.5062,3.5044,3.5019,3.5008,3.4978,3.4961,3.4938,3.4923,3.4932,3.488,3.4889,3.4871,3.4872,3.4859,3.486,3.4816,3.4849,3.4849,3.4849,3.4849,0,3.5188,3.5159,3.5145,3.5124,3.5093,3.5082,3.5051,3.5037,3.5017,3.4993,3.4987,3.4965,3.4946,3.4921,3.4909,3.4875,3.4867,3.4859,3.4856,3.4859,3.486,3.4848,3.485,3.4848,3.4848,3.4848,3.4849,0,3.5153,3.5142,3.5106,3.5083,3.5077,3.5055,3.5034,3.5014,3.5002,3.4973,3.4965,3.4945,3.4916,3.4899,3.4861,3.4853,3.4815,3.4813,3.4825,3.4823,3.4807,3.4809,3.4753,3.4745,3.4783,3.4783,3.4783,0,3.5125,3.5104,3.5081,3.5067,3.5054,3.503,3.5014,3.5003,3.4986,3.4959,3.4942,3.4914,3.489,3.4843,3.4824,3.4795,3.4793,3.4775,3.4788,3.4793,3.4793,3.4795,3.4794,3.4772,3.4772,3.4772,3.4772,0,3.5078,3.5075,3.5053,3.5031,3.5013,3.4993,3.4974,3.4962,3.4948,3.4929,3.4902,3.4884,3.4848,3.4819,3.479,3.4775,3.4771,3.4769,3.4763,3.4766,3.4774,3.4771,3.4819,3.4769,3.4769,3.477,3.477,3.477,3.5046,3.5029,3.5011,3.4988,3.4973,3.4957,3.4938,3.4926,3.4903,3.4875,3.487,3.4841,3.4819,3.478,3.4764,3.4741,3.4744,3.4735,3.4733,3.4731,3.4732,3.4779,3.4735,3.4735,3.4735,3.4735,3.4735,0,3.5,3.499,3.4969,3.4945,3.4927,3.4929,3.4909,3.4893,3.4869,3.485,3.4829,3.4798,3.4771,3.4752,3.4725,3.471,3.4708,3.4703,3.4704,3.4701,3.473,3.4738,3.4706,3.4706,3.4706,3.4706,3.4706,3.4706,3.4974,3.4945,3.494,3.4904,3.4893,3.4868,3.4856,3.4841,3.4827,3.4794,3.4773,3.4763,3.4744,3.4716,3.4692,3.4687,3.4678,3.4674,3.4668,3.4695,3.4698,3.4701,3.4709,3.4672,3.4672,3.4642,3.4642,3.4641]}]]